Aérodrome :
LOGIN :

S'inscrire | Disclaimer

   EN    FR    IT 

 










Légende :    VFR   VFR Marginal   IFR   IFR Intensif   IFR Très Intensif
Visi : 
Plafond : 
>= 8 km
>= 3000ft
5 à 8 km
1000 à 3000 ft
1500m à 5 km
500 à 1000 ft
800 à 1500m
200 à 500 ft
< 800m
< 200 ft
Symboles :   Orages  Brouillard  Fortes neiges  Fortes précipitations  Vent > 20 kt
SIGMETs :   Divers  Orages  Givrage  Turbulence  Onde Orograph.  Cendres Volcan.






- Altitude de l'aérodrome : 187 ft


LPMR - Monte Real Air Base

DERNIER METAR :
  • 021600Z 31010KT 280V340 9999 FEW018 16/09 Q1015

METARs EXPIRÉS :
  • 021500Z 31010KT 280V350 9999 FEW018 16/09 Q1015
  • 021400Z 30009KT 250V340 9999 FEW018 16/08 Q1015

TAF TAF LPMR
Valide du 02 à 12h jusqu'au 03 à 12h UTC


021102Z 0212/0312 VRB02KT 9999 FEW030
BECMG 0212/0214 31008KT
BECMG 0300/0302 14005KT 5000 BR SCT004
PROB40 0301/0309 0200 FG BKN002
BECMG 0309/0311 CAVOK



MET'MAP, la Météo Aéronautique d'un coup d'oeil ! - Copyright ORBIFLY Décembre 2007 - Disclaimer

ORBIFLY MET'MAP TEAM :

Programmation & Développement : Alexandra Zaïnal
Sur une idée originale de : Baudouin d'Aumeries
Assistance à la programmation : Marc-Olivier Méhu
Soutien technique & logistique : Manuel Goepfert

Contact : metmap@orbifly.com




SOURCES & CREDITS :

   NOAA